| time (UTC) | temp F | wind direction | speed MPH | gust MPH | rain 1hr in | rain 24hr in | rain mn in | humidity % | barometer mb |
| 20260905193235 | 62 | 20 | 1.0 | 7.0 | 0.00 | 0.08 | 0.01 | 83 | 1016.9 |
| 20260905192733 | 62 | 10 | 1.0 | 7.0 | 0.00 | 0.08 | 0.01 | 85 | 1017.0 |
| 20260905192238 | 62 | 28 | 1.0 | 7.0 | 0.00 | 0.08 | 0.01 | 83 | 1016.9 |
| 20260905191732 | 62 | 95 | 1.0 | 7.0 | 0.00 | 0.08 | 0.01 | 85 | 1017.0 |
| 20260905191232 | 62 | 288 | 1.0 | 4.0 | 0.00 | 0.08 | 0.01 | 84 | 1017.0 |
| 20260905190732 | 62 | 34 | 1.0 | 3.0 | 0.00 | 0.08 | 0.01 | 84 | 1017.0 |
| 20260905190232 | 62 | 155 | 1.0 | 4.0 | 0.00 | 0.08 | 0.01 | 87 | 1017.0 |
| 20260905185734 | 61 | 113 | 1.0 | 4.0 | 0.00 | 0.08 | 0.01 | 88 | 1017.1 |
| 20260905185232 | 60 | 19 | 1.0 | 4.0 | 0.00 | 0.08 | 0.01 | 90 | 1017.0 |
| 20260905184732 | 60 | 355 | 1.0 | 3.0 | 0.00 | 0.08 | 0.01 | 88 | 1017.1 |
| 20260905184233 | 59 | 65 | 1.0 | 3.0 | 0.00 | 0.08 | 0.01 | 87 | 1017.1 |
| 20260905183736 | 60 | 225 | 1.0 | 4.0 | 0.00 | 0.08 | 0.01 | 89 | 1017.1 |
| 20260905183731 | 59 | 275 | 1.0 | 4.0 | 0.00 | 0.08 | 0.01 | 89 | 1017.1 |
| 20260905183230 | 59 | 180 | 1.0 | 4.0 | 0.00 | 0.08 | 0.01 | 88 | 1017.1 |
| 20260905182230 | 59 | 44 | 1.0 | 4.0 | 0.00 | 0.08 | 0.01 | 90 | 1017.1 |
| 20260905181736 | 59 | 5 | 1.0 | 4.0 | 0.00 | 0.08 | 0.01 | 91 | 1017.1 |
| 20260905181730 | 59 | 148 | 0.0 | 2.0 | 0.00 | 0.08 | 0.01 | 91 | 1017.1 |
| 20260905181345 | 58 | 0 | 1.0 | 4.0 | 0.00 | 0.08 | 0.01 | 90 | 1017.2 |
| 20260905180842 | 58 | 9 | 1.0 | 3.0 | 0.00 | 0.08 | 0.01 | 90 | 1017.2 |
| 20260905180349 | 58 | 5 | 1.0 | 3.0 | 0.00 | 0.08 | 0.01 | 90 | 1017.2 |
| 20260905175231 | 58 | 25 | 1.0 | 5.0 | 0.00 | 0.08 | 0.01 | 90 | 1017.2 |
| 20260905174734 | 58 | 98 | 1.0 | 5.0 | 0.00 | 0.08 | 0.01 | 89 | 1017.1 |
| 20260905174728 | 58 | 150 | 1.0 | 5.0 | 0.00 | 0.08 | 0.01 | 89 | 1017.1 |
| 20260905173728 | 58 | 136 | 1.0 | 5.0 | 0.00 | 0.08 | 0.01 | 90 | 1017.0 |
| 20260905173228 | 59 | 181 | 1.0 | 9.0 | 0.00 | 0.08 | 0.01 | 90 | 1017.0 |
| 20260905172734 | 59 | 145 | 1.0 | 2.0 | 0.00 | 0.08 | 0.01 | 89 | 1017.0 |
| 20260905172730 | 59 | 143 | 1.0 | 9.0 | 0.00 | 0.08 | 0.01 | 90 | 1017.0 |
| 20260905171733 | 58 | 96 | 1.0 | 5.0 | 0.00 | 0.08 | 0.01 | 90 | 1017.0 |
| 20260905171729 | 58 | 150 | 1.0 | 4.0 | 0.00 | 0.08 | 0.01 | 90 | 1017.0 |
| 20260905171342 | 58 | 172 | 1.0 | 5.0 | 0.00 | 0.08 | 0.01 | 91 | 1017.0 |
| 20260905170841 | 58 | 128 | 1.0 | 5.0 | 0.00 | 0.08 | 0.01 | 92 | 1017.0 |
| 20260905170341 | 58 | 180 | 1.0 | 5.0 | 0.00 | 0.08 | 0.01 | 92 | 1016.9 |
| 20260905165229 | 58 | 169 | 1.0 | 4.0 | 0.00 | 0.08 | 0.01 | 91 | 1016.9 |
| 20260905164728 | 58 | 181 | 1.0 | 4.0 | 0.00 | 0.08 | 0.01 | 92 | 1017.0 |
| 20260905164231 | 58 | 184 | 1.0 | 5.0 | 0.00 | 0.08 | 0.01 | 91 | 1017.0 |
| 20260905164226 | 58 | 172 | 1.0 | 5.0 | 0.00 | 0.08 | 0.01 | 91 | 1017.0 |
| 20260905163840 | 58 | 178 | 1.0 | 6.0 | 0.00 | 0.08 | 0.01 | 92 | 1016.9 |
| 20260905162724 | 58 | 172 | 1.0 | 6.0 | 0.00 | 0.08 | 0.01 | 91 | 1016.9 |
| 20260905162226 | 58 | 175 | 1.0 | 4.0 | 0.00 | 0.08 | 0.01 | 91 | 1016.9 |
| 20260905161724 | 58 | 147 | 1.0 | 3.0 | 0.00 | 0.08 | 0.01 | 90 | 1016.9 |
| 20260905161221 | 58 | 184 | 1.0 | 3.0 | 0.00 | 0.08 | 0.01 | 91 | 1016.9 |
| 20260905160724 | 58 | 0 | 0.0 | 3.0 | 0.00 | 0.08 | 0.01 | 91 | 1016.9 |
| 20260905160222 | 58 | 231 | 0.0 | 2.0 | 0.00 | 0.08 | 0.01 | 91 | 1016.9 |
| 20260905155727 | 58 | 304 | 0.0 | 0.0 | 0.00 | 0.08 | 0.01 | 92 | 1016.9 |
| 20260905155723 | 58 | 304 | 0.0 | 0.0 | 0.00 | 0.08 | 0.01 | 92 | 1016.9 |
| 20260905154723 | 58 | 304 | 0.0 | 0.0 | 0.00 | 0.08 | 0.01 | 94 | 1016.9 |
| 20260905154222 | 57 | 318 | 0.0 | 0.0 | 0.00 | 0.08 | 0.01 | 94 | 1016.9 |
| 20260905153721 | 57 | 318 | 0.0 | 0.0 | 0.00 | 0.08 | 0.01 | 93 | 1016.9 |
| 20260905153222 | 57 | 268 | 0.0 | 0.0 | 0.00 | 0.08 | 0.01 | 94 | 1016.9 |
| 20260905152721 | 57 | 268 | 0.0 | 0.0 | 0.00 | 0.08 | 0.01 | 94 | 1016.9 |
| 20260905152221 | 57 | 268 | 0.0 | 0.0 | 0.00 | 0.08 | 0.01 | 94 | 1016.9 |
| 20260905151721 | 57 | 268 | 0.0 | 0.0 | 0.00 | 0.08 | 0.01 | 95 | 1016.9 |
| 20260905151221 | 57 | 256 | 0.0 | 0.0 | 0.00 | 0.08 | 0.01 | 95 | 1016.9 |
| 20260905150725 | 56 | 248 | 0.0 | 0.0 | 0.00 | 0.08 | 0.01 | 95 | 1016.8 |
| 20260905150721 | 56 | 252 | 0.0 | 0.0 | 0.00 | 0.08 | 0.01 | 95 | 1016.9 |
| 20260905145723 | 56 | 248 | 0.0 | 0.0 | 0.00 | 0.08 | 0.01 | 94 | 1016.9 |
| 20260905145221 | 56 | 247 | 0.0 | 0.0 | 0.00 | 0.08 | 0.01 | 94 | 1016.8 |
| 20260905144725 | 56 | 321 | 0.0 | 0.0 | 0.00 | 0.08 | 0.01 | 95 | 1016.8 |
| 20260905144720 | 56 | 249 | 0.0 | 0.0 | 0.00 | 0.08 | 0.01 | 95 | 1016.8 |
| 20260905144333 | 56 | 321 | 0.0 | 0.0 | 0.00 | 0.08 | 0.01 | 95 | 1016.8 |
| 20260905143219 | 56 | 321 | 0.0 | 0.0 | 0.00 | 0.08 | 0.01 | 95 | 1016.8 |
| 20260905142719 | 56 | 317 | 0.0 | 0.0 | 0.00 | 0.08 | 0.01 | 95 | 1016.8 |
| 20260905142220 | 56 | 317 | 0.0 | 0.0 | 0.01 | 0.08 | 0.01 | 95 | 1016.8 |
| 20260905141721 | 56 | 318 | 0.0 | 0.0 | 0.01 | 0.08 | 0.01 | 95 | 1016.8 |
| 20260905141221 | 56 | 318 | 0.0 | 0.0 | 0.01 | 0.08 | 0.01 | 95 | 1016.7 |
| 20260905140720 | 56 | 317 | 0.0 | 0.0 | 0.01 | 0.08 | 0.01 | 95 | 1016.8 |
| 20260905140220 | 56 | 225 | 0.0 | 0.0 | 0.01 | 0.08 | 0.01 | 95 | 1016.7 |
| 20260905135720 | 56 | 217 | 0.0 | 0.0 | 0.01 | 0.08 | 0.01 | 95 | 1016.7 |
| 20260905135219 | 56 | 217 | 0.0 | 0.0 | 0.01 | 0.08 | 0.01 | 94 | 1016.6 |
| 20260905134719 | 56 | 217 | 0.0 | 0.0 | 0.01 | 0.08 | 0.01 | 94 | 1016.7 |
| 20260905134220 | 56 | 217 | 0.0 | 0.0 | 0.01 | 0.08 | 0.01 | 94 | 1016.7 |
| 20260905133719 | 56 | 221 | 0.0 | 0.0 | 0.01 | 0.08 | 0.01 | 94 | 1016.6 |
| 20260905133219 | 56 | 221 | 0.0 | 0.0 | 0.01 | 0.08 | 0.01 | 95 | 1016.6 |
| 20260905132725 | 56 | 221 | 0.0 | 0.0 | 0.00 | 0.07 | 0.00 | 94 | 1016.4 |
| 20260905132719 | 56 | 221 | 0.0 | 0.0 | 0.01 | 0.08 | 0.01 | 94 | 1016.4 |
| 20260905131723 | 56 | 173 | 0.0 | 0.0 | 0.00 | 0.07 | 0.00 | 95 | 1016.6 |
| 20260905131719 | 56 | 173 | 0.0 | 0.0 | 0.00 | 0.07 | 0.00 | 94 | 1016.6 |
| 20260905130720 | 56 | 173 | 0.0 | 0.0 | 0.00 | 0.07 | 0.00 | 95 | 1016.6 |
| 20260905130219 | 56 | 173 | 0.0 | 0.0 | 0.00 | 0.07 | 0.00 | 94 | 1016.6 |
| 20260905125720 | 56 | 173 | 0.0 | 0.0 | 0.00 | 0.07 | 0.00 | 94 | 1016.4 |
| 20260905125219 | 56 | 173 | 0.0 | 0.0 | 0.00 | 0.07 | 0.00 | 94 | 1016.4 |
| 20260905124721 | 55 | 173 | 0.0 | 0.0 | 0.00 | 0.08 | 0.00 | 94 | 1016.3 |
| 20260905124228 | 55 | 173 | 0.0 | 0.0 | 0.00 | 0.08 | 0.00 | 94 | 1016.3 |
| 20260905124224 | 55 | 173 | 0.0 | 0.0 | 0.00 | 0.08 | 0.00 | 94 | 1016.3 |
| 20260905123219 | 55 | 173 | 0.0 | 0.0 | 0.00 | 0.08 | 0.00 | 94 | 1016.3 |
| 20260905122720 | 55 | 173 | 0.0 | 0.0 | 0.00 | 0.08 | 0.00 | 94 | 1016.3 |
| 20260905122225 | 55 | 173 | 0.0 | 0.0 | 0.00 | 0.08 | 0.00 | 94 | 1016.2 |
| 20260905122219 | 55 | 173 | 0.0 | 0.0 | 0.00 | 0.08 | 0.00 | 94 | 1016.3 |
| 20260905121835 | 55 | 173 | 0.0 | 0.0 | 0.00 | 0.08 | 0.00 | 94 | 1016.1 |
| 20260905121720 | 55 | 173 | 0.0 | 0.0 | 0.00 | 0.08 | 0.00 | 94 | 1016.2 |
| 20260905120217 | 55 | 173 | 0.0 | 0.0 | 0.00 | 0.08 | 0.00 | 94 | 1016.1 |
| 20260905115717 | 55 | 173 | 0.0 | 0.0 | 0.00 | 0.09 | 0.00 | 94 | 1016.2 |
| 20260905115217 | 55 | 172 | 0.0 | 0.0 | 0.00 | 0.09 | 0.00 | 94 | 1016.2 |
| 20260905114717 | 55 | 172 | 0.0 | 0.0 | 0.00 | 0.09 | 0.00 | 94 | 1016.2 |
| 20260905114218 | 55 | 172 | 0.0 | 0.0 | 0.00 | 0.09 | 0.00 | 93 | 1016.1 |
| 20260905113718 | 55 | 172 | 0.0 | 2.0 | 0.00 | 0.09 | 0.00 | 94 | 1016.1 |
| 20260905113217 | 55 | 172 | 0.0 | 2.0 | 0.00 | 0.09 | 0.00 | 93 | 1016.1 |
| 20260905112717 | 56 | 172 | 0.0 | 2.0 | 0.00 | 0.09 | 0.00 | 93 | 1016.1 |
| 20260905112218 | 56 | 172 | 0.0 | 2.0 | 0.00 | 0.09 | 0.00 | 93 | 1016.1 |
| 20260905111717 | 56 | 172 | 0.0 | 0.0 | 0.00 | 0.09 | 0.00 | 94 | 1016.0 |
| 20260905111219 | 56 | 172 | 0.0 | 2.0 | 0.00 | 0.09 | 0.00 | 94 | 1016.0 |
| 20260905111215 | 56 | 172 | 0.0 | 2.0 | 0.00 | 0.09 | 0.00 | 94 | 1016.0 |
| 20260905110215 | 56 | 172 | 0.0 | 2.0 | 0.00 | 0.09 | 0.00 | 94 | 1016.0 |
| 20260905105715 | 56 | 172 | 0.0 | 2.0 | 0.00 | 0.09 | 0.00 | 94 | 1016.0 |
| 20260905105215 | 56 | 172 | 0.0 | 2.0 | 0.00 | 0.09 | 0.00 | 93 | 1016.1 |
| 20260905104723 | 56 | 172 | 0.0 | 2.0 | 0.00 | 0.09 | 0.00 | 94 | 1016.1 |
| 20260905104716 | 56 | 172 | 0.0 | 2.0 | 0.00 | 0.09 | 0.00 | 93 | 1016.1 |
| 20260905104215 | 56 | 172 | 0.0 | 2.0 | 0.00 | 0.09 | 0.00 | 94 | 1016.1 |
| 20260905103717 | 56 | 172 | 0.0 | 2.0 | 0.00 | 0.09 | 0.00 | 94 | 1016.1 |
| 20260905102715 | 56 | 165 | 0.0 | 2.0 | 0.00 | 0.09 | 0.00 | 94 | 1016.1 |
| 20260905102218 | 56 | 165 | 0.0 | 3.0 | 0.00 | 0.09 | 0.00 | 94 | 1016.1 |
| 20260905102214 | 56 | 165 | 0.0 | 3.0 | 0.00 | 0.09 | 0.00 | 94 | 1016.1 |
| 20260905101214 | 56 | 167 | 0.0 | 3.0 | 0.00 | 0.09 | 0.00 | 94 | 1016.1 |
| 20260905100714 | 56 | 171 | 0.0 | 3.0 | 0.00 | 0.09 | 0.00 | 94 | 1016.1 |
| 20260905100219 | 56 | 140 | 0.0 | 2.0 | 0.00 | 0.10 | 0.00 | 94 | 1016.1 |
| 20260905100213 | 56 | 140 | 0.0 | 2.0 | 0.00 | 0.09 | 0.00 | 94 | 1016.1 |
| 20260905095713 | 56 | 140 | 0.0 | 2.0 | 0.00 | 0.09 | 0.00 | 94 | 1016.2 |
| 20260905094713 | 56 | 140 | 0.0 | 2.0 | 0.00 | 0.10 | 0.00 | 94 | 1016.1 |
| 20260905094212 | 56 | 140 | 0.0 | 2.0 | 0.00 | 0.10 | 0.00 | 94 | 1016.1 |
| 20260905093714 | 56 | 140 | 0.0 | 2.0 | 0.00 | 0.10 | 0.00 | 94 | 1016.1 |
| 20260905093217 | 56 | 140 | 0.0 | 2.0 | 0.00 | 0.10 | 0.00 | 94 | 1016.0 |
| 20260905093211 | 56 | 140 | 0.0 | 2.0 | 0.00 | 0.10 | 0.00 | 94 | 1016.0 |
| 20260905092216 | 56 | 140 | 0.0 | 2.0 | 0.00 | 0.10 | 0.00 | 94 | 1015.9 |
| 20260905092212 | 56 | 140 | 0.0 | 2.0 | 0.00 | 0.10 | 0.00 | 94 | 1016.0 |
| 20260905091217 | 56 | 171 | 0.0 | 2.0 | 0.00 | 0.11 | 0.00 | 94 | 1015.8 |
| 20260905091212 | 56 | 140 | 0.0 | 2.0 | 0.00 | 0.10 | 0.00 | 94 | 1015.9 |
| 20260905090711 | 56 | 171 | 0.0 | 2.0 | 0.00 | 0.10 | 0.00 | 94 | 1015.9 |
| 20260905085711 | 56 | 146 | 0.0 | 2.0 | 0.00 | 0.11 | 0.00 | 94 | 1015.9 |
| 20260905085212 | 56 | 145 | 0.0 | 2.0 | 0.00 | 0.12 | 0.00 | 94 | 1015.9 |
| 20260905084716 | 56 | 145 | 0.0 | 2.0 | 0.00 | 0.13 | 0.00 | 93 | 1015.9 |
| 20260905084710 | 56 | 145 | 0.0 | 2.0 | 0.00 | 0.13 | 0.00 | 93 | 1015.9 |
| 20260905083715 | 56 | 145 | 0.0 | 2.0 | 0.00 | 0.16 | 0.00 | 93 | 1015.8 |
| 20260905083711 | 56 | 145 | 0.0 | 2.0 | 0.00 | 0.14 | 0.00 | 93 | 1015.9 |
| 20260905082709 | 56 | 145 | 0.0 | 1.0 | 0.00 | 0.17 | 0.00 | 93 | 1015.8 |
| 20260905082214 | 56 | 145 | 0.0 | 2.0 | 0.00 | 0.18 | 0.00 | 93 | 1015.8 |
| 20260905082210 | 56 | 145 | 0.0 | 2.0 | 0.00 | 0.17 | 0.00 | 93 | 1015.8 |
| 20260905081208 | 56 | 145 | 0.0 | 2.0 | 0.00 | 0.18 | 0.00 | 93 | 1015.8 |
| 20260905080710 | 56 | 145 | 0.0 | 2.0 | 0.00 | 0.18 | 0.00 | 93 | 1015.8 |
| 20260905080206 | 56 | 145 | 0.0 | 2.0 | 0.00 | 0.18 | 0.00 | 93 | 1015.7 |
| 20260905075705 | 56 | 145 | 0.0 | 2.0 | 0.00 | 0.18 | 0.00 | 93 | 1015.7 |
| 20260905075205 | 56 | 145 | 0.0 | 2.0 | 0.00 | 0.18 | 0.00 | 93 | 1015.6 |
| 20260905074705 | 56 | 115 | 0.0 | 2.0 | 0.00 | 0.18 | 0.00 | 93 | 1015.6 |
| 20260905074204 | 56 | 115 | 0.0 | 2.0 | 0.00 | 0.18 | 0.00 | 93 | 1015.5 |
| 20260905073704 | 56 | 115 | 0.0 | 2.0 | 0.00 | 0.18 | 0.00 | 93 | 1015.6 |
| 20260905073203 | 56 | 121 | 0.0 | 2.0 | 0.00 | 0.18 | 0.00 | 93 | 1015.5 |
| 20260905072702 | 56 | 121 | 0.0 | 2.0 | 0.00 | 0.18 | 0.00 | 93 | 1015.5 |
| 20260905072201 | 56 | 121 | 0.0 | 2.0 | 0.00 | 0.18 | 0.00 | 93 | 1015.5 |
| 20260905071701 | 56 | 126 | 0.0 | 2.0 | 0.00 | 0.18 | 0.00 | 93 | 1015.5 |
| 20260905071200 | 56 | 126 | 0.0 | 2.0 | 0.00 | 0.18 | 0.00 | 93 | 1015.4 |
| 20260905070702 | 56 | 126 | 0.0 | 2.0 | 0.00 | 0.18 | 0.00 | 93 | 1015.4 |
| 20260905070200 | 56 | 126 | 0.0 | 2.0 | 0.00 | 0.18 | 0.00 | 93 | 1015.4 |
| 20260905065700 | 56 | 38 | 0.0 | 2.0 | 0.00 | 0.18 | 0.18 | 93 | 1015.4 |
| 20260905065159 | 56 | 38 | 0.0 | 2.0 | 0.00 | 0.18 | 0.18 | 94 | 1015.4 |
| 20260905064657 | 56 | 39 | 0.0 | 2.0 | 0.00 | 0.18 | 0.18 | 94 | 1015.4 |
| 20260905064157 | 56 | 39 | 0.0 | 2.0 | 0.00 | 0.18 | 0.18 | 94 | 1015.4 |
| 20260905063657 | 56 | 42 | 0.0 | 2.0 | 0.00 | 0.18 | 0.18 | 94 | 1015.4 |
| 20260905063157 | 56 | 42 | 0.0 | 2.0 | 0.00 | 0.18 | 0.18 | 94 | 1015.3 |
| 20260905062655 | 56 | 42 | 0.0 | 2.0 | 0.00 | 0.18 | 0.18 | 94 | 1015.3 |
| 20260905062155 | 56 | 42 | 0.0 | 0.0 | 0.00 | 0.18 | 0.18 | 94 | 1015.4 |
| 20260905061656 | 56 | 42 | 0.0 | 2.0 | 0.00 | 0.18 | 0.18 | 94 | 1015.3 |
| 20260905061155 | 56 | 42 | 0.0 | 2.0 | 0.00 | 0.18 | 0.18 | 94 | 1015.3 |
| 20260905060655 | 56 | 42 | 0.0 | 0.0 | 0.00 | 0.18 | 0.18 | 94 | 1015.2 |
| 20260905060156 | 56 | 42 | 0.0 | 0.0 | 0.00 | 0.18 | 0.18 | 94 | 1015.3 |
| 20260905055656 | 55 | 42 | 0.0 | 2.0 | 0.00 | 0.18 | 0.18 | 94 | 1015.3 |
| 20260905055154 | 55 | 42 | 0.0 | 2.0 | 0.00 | 0.18 | 0.18 | 94 | 1015.3 |
| 20260905054653 | 55 | 42 | 0.0 | 0.0 | 0.00 | 0.18 | 0.18 | 93 | 1015.2 |
| 20260905054153 | 55 | 42 | 0.0 | 0.0 | 0.00 | 0.18 | 0.18 | 93 | 1015.2 |
| 20260905053656 | 55 | 42 | 0.0 | 0.0 | 0.00 | 0.18 | 0.18 | 92 | 1015.3 |
| 20260905053652 | 55 | 42 | 0.0 | 0.0 | 0.00 | 0.18 | 0.18 | 93 | 1015.3 |
| 20260905052657 | 56 | 42 | 0.0 | 2.0 | 0.00 | 0.18 | 0.18 | 92 | 1015.1 |
| 20260905052651 | 56 | 42 | 0.0 | 2.0 | 0.00 | 0.18 | 0.18 | 92 | 1015.1 |
| 20260905051651 | 56 | 59 | 0.0 | 2.0 | 0.00 | 0.18 | 0.18 | 92 | 1015.1 |
| 20260905051152 | 56 | 60 | 0.0 | 2.0 | 0.00 | 0.18 | 0.18 | 92 | 1015.2 |
| 20260905050656 | 56 | 59 | 0.0 | 1.0 | 0.00 | 0.18 | 0.18 | 92 | 1015.2 |
| 20260905050651 | 56 | 60 | 0.0 | 1.0 | 0.00 | 0.18 | 0.18 | 92 | 1015.1 |
| 20260905045652 | 56 | 60 | 0.0 | 1.0 | 0.00 | 0.18 | 0.18 | 92 | 1015.2 |
| 20260905045151 | 56 | 60 | 0.0 | 1.0 | 0.00 | 0.18 | 0.18 | 91 | 1015.2 |
| 20260905044648 | 56 | 60 | 0.0 | 1.0 | 0.00 | 0.18 | 0.18 | 91 | 1015.2 |
| 20260905044149 | 56 | 60 | 0.0 | 2.0 | 0.00 | 0.19 | 0.18 | 91 | 1015.1 |
| 20260905043649 | 56 | 60 | 0.0 | 2.0 | 0.00 | 0.19 | 0.18 | 91 | 1015.1 |
| 20260905043149 | 56 | 60 | 0.0 | 2.0 | 0.00 | 0.20 | 0.18 | 91 | 1015.0 |
| 20260905042649 | 56 | 60 | 0.0 | 2.0 | 0.00 | 0.20 | 0.18 | 91 | 1014.9 |
| 20260905042155 | 56 | 15 | 0.0 | 2.0 | 0.00 | 0.21 | 0.18 | 92 | 1014.9 |
| 20260905042149 | 56 | 40 | 0.0 | 2.0 | 0.00 | 0.21 | 0.18 | 91 | 1014.9 |
| 20260905041149 | 57 | 15 | 0.0 | 2.0 | 0.00 | 0.22 | 0.18 | 92 | 1014.8 |
| 20260905040649 | 57 | 15 | 0.0 | 0.0 | 0.00 | 0.22 | 0.18 | 92 | 1014.7 |
| 20260905040149 | 57 | 15 | 0.0 | 1.0 | 0.00 | 0.22 | 0.18 | 92 | 1014.7 |
| 20260905035647 | 57 | 15 | 0.0 | 1.0 | 0.00 | 0.22 | 0.18 | 92 | 1014.7 |
| 20260905035147 | 57 | 15 | 0.0 | 1.0 | 0.00 | 0.23 | 0.18 | 92 | 1014.6 |
| 20260905034646 | 57 | 15 | 0.0 | 2.0 | 0.00 | 0.23 | 0.18 | 92 | 1014.6 |
| 20260905034148 | 57 | 15 | 0.0 | 2.0 | 0.00 | 0.23 | 0.18 | 92 | 1014.6 |
| 20260905033651 | 57 | 15 | 0.0 | 2.0 | 0.00 | 0.23 | 0.18 | 92 | 1014.5 |
| 20260905033647 | 57 | 15 | 0.0 | 2.0 | 0.00 | 0.23 | 0.18 | 92 | 1014.6 |
| 20260905032647 | 57 | 15 | 0.0 | 2.0 | 0.00 | 0.24 | 0.18 | 92 | 1014.5 |
| 20260905032148 | 57 | 15 | 0.0 | 0.0 | 0.00 | 0.24 | 0.18 | 92 | 1014.4 |
| 20260905031648 | 58 | 15 | 0.0 | 0.0 | 0.00 | 0.25 | 0.18 | 92 | 1014.3 |
| 20260905031147 | 58 | 15 | 0.0 | 2.0 | 0.00 | 0.25 | 0.18 | 92 | 1014.2 |
| 20260905030646 | 58 | 15 | 0.0 | 2.0 | 0.00 | 0.25 | 0.18 | 92 | 1014.1 |
| 20260905030150 | 58 | 15 | 0.0 | 2.0 | 0.00 | 0.25 | 0.18 | 92 | 1014.2 |
| 20260905030145 | 58 | 15 | 0.0 | 2.0 | 0.00 | 0.25 | 0.18 | 92 | 1014.2 |
| 20260905025146 | 58 | 15 | 0.0 | 2.0 | 0.00 | 0.25 | 0.18 | 91 | 1014.1 |
| 20260905024644 | 58 | 15 | 0.0 | 0.0 | 0.00 | 0.25 | 0.18 | 91 | 1014.1 |
| 20260905024146 | 58 | 15 | 0.0 | 0.0 | 0.00 | 0.25 | 0.18 | 91 | 1014.1 |
| 20260905023644 | 58 | 15 | 0.0 | 0.0 | 0.00 | 0.25 | 0.18 | 91 | 1014.1 |
| 20260905023145 | 58 | 15 | 0.0 | 0.0 | 0.00 | 0.25 | 0.18 | 91 | 1014.0 |
| 20260905022650 | 58 | 15 | 0.0 | 2.0 | 0.00 | 0.25 | 0.18 | 91 | 1014.0 |
| 20260905022645 | 58 | 15 | 0.0 | 2.0 | 0.00 | 0.25 | 0.18 | 91 | 1014.1 |
| 20260905021647 | 58 | 15 | 0.0 | 2.0 | 0.00 | 0.25 | 0.18 | 90 | 1014.0 |
| 20260905021643 | 58 | 15 | 0.0 | 2.0 | 0.00 | 0.25 | 0.18 | 91 | 1014.0 |
| 20260905020644 | 58 | 15 | 0.0 | 2.0 | 0.00 | 0.25 | 0.18 | 90 | 1013.9 |
| 20260905020142 | 59 | 15 | 0.0 | 2.0 | 0.00 | 0.25 | 0.18 | 90 | 1013.9 |
| 20260905015644 | 59 | 15 | 0.0 | 2.0 | 0.00 | 0.25 | 0.18 | 90 | 1014.0 |
| 20260905015141 | 59 | 15 | 0.0 | 3.0 | 0.00 | 0.25 | 0.18 | 91 | 1014.0 |
| 20260905014641 | 59 | 15 | 0.0 | 3.0 | 0.00 | 0.25 | 0.18 | 91 | 1014.0 |
| 20260905014140 | 59 | 27 | 1.0 | 4.0 | 0.00 | 0.26 | 0.18 | 91 | 1014.0 |
| 20260905013641 | 59 | 23 | 1.0 | 4.0 | 0.00 | 0.26 | 0.18 | 91 | 1014.0 |
| 20260905013142 | 59 | 22 | 0.0 | 3.0 | 0.00 | 0.26 | 0.18 | 91 | 1013.9 |
| 20260905012638 | 59 | 189 | 0.0 | 3.0 | 0.00 | 0.27 | 0.18 | 91 | 1014.0 |
| 20260905012139 | 59 | 189 | 0.0 | 3.0 | 0.00 | 0.29 | 0.18 | 91 | 1013.9 |
| 20260905011638 | 59 | 65 | 0.0 | 2.0 | 0.00 | 0.30 | 0.18 | 91 | 1013.9 |
| 20260905011145 | 58 | 72 | 0.0 | 2.0 | 0.00 | 0.31 | 0.18 | 91 | 1013.8 |
| 20260905011139 | 58 | 65 | 0.0 | 2.0 | 0.00 | 0.31 | 0.18 | 91 | 1013.8 |
| 20260905010639 | 58 | 67 | 0.0 | 2.0 | 0.00 | 0.31 | 0.18 | 91 | 1013.8 |
| 20260905005639 | 58 | 9 | 0.0 | 2.0 | 0.00 | 0.31 | 0.18 | 91 | 1013.7 |
| 20260905005139 | 58 | 9 | 0.0 | 3.0 | 0.00 | 0.31 | 0.18 | 91 | 1013.7 |
| 20260905004643 | 58 | 267 | 1.0 | 2.0 | 0.00 | 0.31 | 0.18 | 90 | 1013.5 |
| 20260905004638 | 58 | 9 | 0.0 | 3.0 | 0.00 | 0.31 | 0.18 | 91 | 1013.5 |
| 20260905003639 | 58 | 283 | 1.0 | 5.0 | 0.01 | 0.31 | 0.18 | 90 | 1013.5 |
| 20260905003139 | 58 | 38 | 1.0 | 5.0 | 0.01 | 0.31 | 0.18 | 90 | 1013.5 |
| 20260905002638 | 59 | 73 | 1.0 | 8.0 | 0.01 | 0.31 | 0.18 | 90 | 1013.4 |
| 20260905002138 | 59 | 33 | 2.0 | 8.0 | 0.01 | 0.31 | 0.18 | 90 | 1013.3 |
| 20260905001639 | 59 | 15 | 1.0 | 6.0 | 0.01 | 0.31 | 0.18 | 90 | 1013.3 |
| 20260905001144 | 60 | 350 | 1.0 | 8.0 | 0.02 | 0.32 | 0.18 | 89 | 1013.2 |
| 20260905001139 | 59 | 9 | 1.0 | 6.0 | 0.01 | 0.31 | 0.18 | 89 | 1013.3 |
| 20260905000144 | 60 | 351 | 3.0 | 5.0 | 0.02 | 0.34 | 0.18 | 89 | 1012.9 |
| 20260905000138 | 60 | 128 | 2.0 | 8.0 | 0.02 | 0.33 | 0.18 | 89 | 1013.1 |
| 20260904235140 | 60 | 30 | 3.0 | 5.0 | 0.02 | 0.34 | 0.18 | 88 | 1013.0 |
| 20260904234639 | 60 | 28 | 3.0 | 5.0 | 0.02 | 0.35 | 0.18 | 89 | 1012.9 |
| 20260904234139 | 60 | 15 | 2.0 | 5.0 | 0.02 | 0.35 | 0.18 | 89 | 1012.9 |
| 20260904233639 | 60 | 15 | 1.0 | 4.0 | 0.01 | 0.35 | 0.17 | 90 | 1012.9 |
| 20260904233138 | 60 | 10 | 1.0 | 4.0 | 0.01 | 0.35 | 0.17 | 91 | 1012.9 |
| 20260904232638 | 60 | 43 | 1.0 | 4.0 | 0.01 | 0.35 | 0.17 | 89 | 1012.9 |
| 20260904232144 | 61 | 17 | 0.0 | 3.0 | 0.01 | 0.35 | 0.17 | 88 | 1013.0 |
| 20260904232138 | 61 | 20 | 1.0 | 4.0 | 0.01 | 0.35 | 0.17 | 89 | 1013.0 |
| 20260904231753 | 61 | 57 | 0.0 | 2.0 | 0.01 | 0.35 | 0.17 | 87 | 1013.0 |
| 20260904230640 | 61 | 63 | 1.0 | 3.0 | 0.00 | 0.34 | 0.16 | 85 | 1012.9 |
| 20260904230143 | 62 | 37 | 1.0 | 6.0 | 0.00 | 0.34 | 0.16 | 84 | 1012.9 |
| 20260904230139 | 62 | 76 | 1.0 | 6.0 | 0.00 | 0.34 | 0.16 | 85 | 1012.9 |
| 20260904225140 | 62 | 253 | 1.0 | 6.0 | 0.00 | 0.34 | 0.16 | 84 | 1012.8 |
| 20260904224640 | 62 | 5 | 2.0 | 8.0 | 0.00 | 0.34 | 0.16 | 84 | 1012.8 |
| 20260904224138 | 63 | 5 | 2.0 | 8.0 | 0.00 | 0.34 | 0.16 | 86 | 1012.8 |
| 20260904223637 | 63 | 23 | 1.0 | 6.0 | 0.00 | 0.34 | 0.16 | 83 | 1012.8 |
| 20260904223136 | 63 | 19 | 2.0 | 6.0 | 0.00 | 0.34 | 0.16 | 85 | 1012.8 |
| 20260904222637 | 63 | 9 | 2.0 | 5.0 | 0.00 | 0.34 | 0.16 | 85 | 1012.8 |
| 20260904222136 | 64 | 196 | 2.0 | 5.0 | 0.01 | 0.34 | 0.16 | 85 | 1012.8 |
| 20260904221640 | 63 | 13 | 1.0 | 5.0 | 0.02 | 0.34 | 0.16 | 87 | 1012.8 |
| 20260904221635 | 64 | 175 | 2.0 | 5.0 | 0.01 | 0.34 | 0.16 | 88 | 1012.7 |
| 20260904220635 | 62 | 339 | 1.0 | 4.0 | 0.02 | 0.34 | 0.16 | 89 | 1012.8 |
| 20260904220139 | 62 | 148 | 2.0 | 5.0 | 0.02 | 0.34 | 0.16 | 87 | 1012.8 |
| 20260904220135 | 62 | 17 | 2.0 | 4.0 | 0.02 | 0.34 | 0.16 | 87 | 1012.7 |
| 20260904215139 | 61 | 76 | 1.0 | 3.0 | 0.02 | 0.34 | 0.16 | 90 | 1012.9 |
| 20260904215135 | 62 | 24 | 1.0 | 5.0 | 0.02 | 0.34 | 0.16 | 90 | 1012.8 |
| 20260904214634 | 61 | 166 | 1.0 | 3.0 | 0.02 | 0.34 | 0.16 | 90 | 1012.9 |
| 20260904213633 | 60 | 37 | 1.0 | 4.0 | 0.02 | 0.34 | 0.16 | 91 | 1012.9 |
| 20260904213133 | 60 | 28 | 1.0 | 5.0 | 0.02 | 0.34 | 0.16 | 92 | 1012.8 |
| 20260904212631 | 60 | 10 | 1.0 | 5.0 | 0.02 | 0.34 | 0.16 | 91 | 1012.8 |
| 20260904212130 | 60 | 14 | 1.0 | 5.0 | 0.01 | 0.33 | 0.15 | 89 | 1012.9 |
| 20260904211130 | 60 | 74 | 1.0 | 4.0 | 0.00 | 0.32 | 0.14 | 89 | 1012.8 |
| 20260904210630 | 60 | 35 | 1.0 | 5.0 | 0.01 | 0.32 | 0.14 | 89 | 1012.8 |
| 20260904210130 | 60 | 36 | 1.0 | 5.0 | 0.01 | 0.32 | 0.14 | 88 | 1012.7 |
| 20260904205630 | 60 | 89 | 1.0 | 8.0 | 0.01 | 0.32 | 0.14 | 88 | 1012.8 |
| 20260904205128 | 60 | 175 | 1.0 | 8.0 | 0.02 | 0.32 | 0.14 | 88 | 1012.7 |
| 20260904204627 | 61 | 169 | 2.0 | 7.0 | 0.02 | 0.32 | 0.14 | 86 | 1012.7 |
| 20260904204127 | 61 | 187 | 2.0 | 8.0 | 0.02 | 0.32 | 0.14 | 85 | 1012.7 |
| 20260904203628 | 62 | 153 | 2.0 | 8.0 | 0.03 | 0.32 | 0.14 | 87 | 1012.7 |
| 20260904203124 | 62 | 180 | 2.0 | 5.0 | 0.03 | 0.32 | 0.14 | 92 | 1012.6 |
| 20260904202625 | 61 | 165 | 1.0 | 5.0 | 0.03 | 0.32 | 0.14 | 90 | 1012.6 |
| 20260904202125 | 60 | 121 | 0.0 | 4.0 | 0.03 | 0.32 | 0.14 | 89 | 1012.6 |
| 20260904201624 | 60 | 158 | 0.0 | 2.0 | 0.03 | 0.33 | 0.14 | 89 | 1012.6 |
| 20260904201124 | 60 | 172 | 0.0 | 2.0 | 0.03 | 0.33 | 0.14 | 89 | 1012.7 |
| 20260904200624 | 60 | 172 | 0.0 | 5.0 | 0.02 | 0.32 | 0.13 | 88 | 1012.8 |
| 20260904200124 | 59 | 173 | 1.0 | 5.0 | 0.02 | 0.32 | 0.13 | 88 | 1012.8 |
| 20260904195625 | 60 | 175 | 1.0 | 6.0 | 0.02 | 0.32 | 0.13 | 86 | 1012.7 |
| 20260904195125 | 60 | 107 | 1.0 | 6.0 | 0.01 | 0.31 | 0.12 | 84 | 1012.7 |
| 20260904194625 | 60 | 202 | 1.0 | 7.0 | 0.01 | 0.31 | 0.12 | 86 | 1012.7 |
| 20260904194124 | 61 | 167 | 1.0 | 7.0 | 0.01 | 0.31 | 0.12 | 84 | 1012.6 |